DW8052 Weather Reports


time (UTC)temp
F
wind
direction
speed
knots
gust
knots
rain 1hr
in
rain 24hr
in
rain mn
in
humidity
%
barometer
mb
20260903110207 64 247 17.4 24.3 0.00 0.00 0.00 48 1017.7
20260903105706 64 248 16.5 25.2 0.00 0.00 0.00 48 1017.7
20260903105206 64 247 18.2 24.3 0.00 0.00 0.00 48 1017.5
20260903104706 64 244 17.4 22.6 0.00 0.00 0.00 47 1017.2
20260903104206 65 247 16.5 22.6 0.00 0.00 0.00 47 1017.2
20260903103706 65 244 14.8 21.7 0.00 0.00 0.00 47 1017.1
20260903103206 65 240 14.8 20.0 0.00 0.00 0.00 45 1017.3
20260903102206 65 229 6.1 12.2 0.00 0.00 0.00 42 1017.1
20260903101706 65 222 6.1 10.4 0.00 0.00 0.00 41 1017.0
20260903100707 66 233 8.7 15.6 0.00 0.00 0.00 40 1016.8
20260903100206 67 236 11.3 15.6 0.00 0.00 0.00 39 1016.4
20260903095706 67 228 9.6 13.9 0.00 0.00 0.00 37 1016.5
20260903095206 67 219 6.1 10.4 0.00 0.00 0.00 35 1016.4
20260903094706 68 215 6.1 11.3 0.00 0.00 0.00 35 1016.3
20260903094206 68 222 7.0 11.3 0.00 0.00 0.00 35 1016.3
20260903093706 68 234 6.1 10.4 0.00 0.00 0.00 35 1016.1
20260903093206 68 230 6.1 12.2 0.00 0.00 0.00 35 1016.0
20260903092706 68 241 10.4 14.8 0.00 0.00 0.00 34 1015.9
20260903092206 69 252 12.2 15.6 0.00 0.00 0.00 33 1015.5
20260903091706 69 250 11.3 17.4 0.00 0.00 0.00 33 1015.4
20260903091205 69 251 13.0 17.4 0.00 0.00 0.00 33 1015.1
20260903090706 69 256 13.0 14.8 0.00 0.00 0.00 33 1015.0
20260903090207 70 253 13.9 15.6 0.00 0.00 0.00 33 1014.8
20260903085706 70 249 10.4 14.8 0.00 0.00 0.00 33 1014.9
20260903085206 70 233 7.8 12.2 0.00 0.00 0.00 33 1015.0
20260903084206 71 225 6.1 10.4 0.00 0.00 0.00 32 1015.0
20260903083706 71 235 6.1 10.4 0.00 0.00 0.00 33 1014.7
20260903082206 72 266 8.7 11.3 0.00 0.00 0.00 29 1014.4
20260903081706 72 270 9.6 11.3 0.00 0.00 0.00 29 1014.0
20260903081206 72 269 8.7 12.2 0.00 0.00 0.00 28 1014.2
20260903080706 72 268 8.7 11.3 0.00 0.00 0.00 28 1014.1
20260903080206 72 265 9.6 14.8 0.00 0.00 0.00 28 1014.1
20260903075706 73 253 9.6 15.6 0.00 0.00 0.00 28 1014.0
20260903074706 73 260 10.4 17.4 0.00 0.00 0.00 27 1013.6
20260903074205 73 258 13.0 19.1 0.00 0.00 0.00 27 1013.3
20260903073706 74 268 15.6 22.6 0.00 0.00 0.00 27 1013.3
20260903073206 74 259 14.8 20.0 0.00 0.00 0.00 27 1013.2
20260903072706 74 264 16.5 22.6 0.00 0.00 0.00 27 1013.1
20260903071706 75 272 14.8 20.9 0.00 0.00 0.00 26 1012.8
20260903071206 75 266 13.9 19.1 0.00 0.00 0.00 26 1012.8
20260903070706 75 273 17.4 22.6 0.00 0.00 0.00 25 1012.7
20260903070206 76 270 12.2 20.9 0.00 0.00 0.00 25 1012.8
20260903065705 76 267 13.9 21.7 0.00 0.00 0.00 26 1012.6
20260903065206 76 260 14.8 20.9 0.00 0.00 0.00 25 1012.4
20260903064706 76 265 9.6 18.2 0.00 0.00 0.00 25 1012.4
20260903064206 77 265 13.9 17.4 0.00 0.00 0.00 25 1012.3
20260903063706 77 243 9.6 18.2 0.00 0.00 0.00 25 1012.3
20260903063205 77 280 8.7 13.0 0.00 0.00 0.00 26 1012.1
20260903062705 77 260 8.7 13.0 0.00 0.00 0.00 26 1011.9
20260903062205 77 261 13.0 20.0 0.00 0.00 0.00 24 1011.9
20260903061705 77 269 11.3 17.4 0.00 0.00 0.00 24 1011.6
20260903061205 77 272 11.3 21.7 0.00 0.00 0.00 24 1011.7
20260903060706 77 263 12.2 20.0 0.00 0.00 0.00 24 1011.6
20260903060206 77 246 13.0 20.0 0.00 0.00 0.00 24 1011.6
20260903055706 77 263 16.5 24.3 0.00 0.00 0.00 24 1011.5
20260903055206 77 274 17.4 22.6 0.00 0.00 0.00 24 1011.4
20260903054706 77 257 18.2 24.3 0.00 0.00 0.00 24 1011.3
20260903054205 77 269 16.5 22.6 0.00 0.00 0.00 24 1011.1
20260903053706 77 259 16.5 22.6 0.00 0.00 0.00 24 1011.3
20260903053205 77 271 15.6 25.2 0.00 0.00 0.00 24 1010.9
20260903052706 77 261 18.2 25.2 0.00 0.00 0.00 25 1010.9
20260903052206 77 262 13.9 26.9 0.00 0.00 0.00 24 1011.0
20260903051205 77 275 14.8 22.6 0.00 0.00 0.00 25 1010.9
20260903050705 77 278 17.4 28.7 0.00 0.00 0.00 25 1011.0
20260903050205 77 277 17.4 22.6 0.00 0.00 0.00 25 1010.9
20260903045706 77 280 14.8 20.9 0.00 0.00 0.00 27 1010.8
20260903045206 78 254 13.9 22.6 0.00 0.00 0.00 27 1011.0
20260903044706 78 261 15.6 21.7 0.00 0.00 0.00 26 1011.1
20260903044206 78 260 17.4 22.6 0.00 0.00 0.00 25 1010.8
20260903043706 78 255 14.8 22.6 0.00 0.00 0.00 25 1010.8
20260903042205 78 257 14.8 21.7 0.00 0.00 0.00 25 1010.6
20260903041705 77 256 13.0 21.7 0.00 0.00 0.00 25 1010.5
20260903041206 77 266 16.5 26.1 0.00 0.00 0.00 25 1010.5
20260903040205 77 268 15.6 26.1 0.00 0.00 0.00 25 1010.2
20260903035706 77 281 15.6 22.6 0.00 0.00 0.00 25 1010.3
20260903035206 77 263 19.1 28.7 0.00 0.00 0.00 26 1010.3
20260903034706 77 271 18.2 26.9 0.00 0.00 0.00 27 1010.2
20260903034205 77 281 15.6 22.6 0.00 0.00 0.00 28 1010.1
20260903033705 77 274 19.1 24.3 0.00 0.00 0.00 28 1010.0
20260903033205 78 263 20.9 27.8 0.00 0.00 0.00 27 1010.1
20260903032705 77 259 18.2 31.3 0.00 0.00 0.00 27 1010.0
20260903032206 78 289 15.6 24.3 0.00 0.00 0.00 27 1010.3
20260903031706 77 281 13.9 22.6 0.00 0.00 0.00 28 1010.2
20260903031206 77 274 17.4 26.9 0.00 0.00 0.00 27 1010.3
20260903030705 77 288 17.4 26.1 0.00 0.00 0.00 27 1010.2
20260903030205 77 270 14.8 19.1 0.00 0.00 0.00 30 1010.5
20260903025705 77 249 18.2 24.3 0.00 0.00 0.00 29 1010.4
20260903025205 77 263 14.8 25.2 0.00 0.00 0.00 29 1010.4
20260903024705 78 267 19.1 26.9 0.00 0.00 0.00 28 1010.5
20260903023705 77 264 13.9 28.7 0.00 0.00 0.00 29 1010.4
20260903022705 77 259 22.6 30.4 0.00 0.00 0.00 32 1010.1
20260903022205 77 266 24.3 33.0 0.00 0.00 0.00 32 1009.9
20260903021205 76 267 21.7 31.3 0.00 0.00 0.00 33 1009.8
20260903020705 76 276 25.2 30.4 0.00 0.00 0.00 33 1009.6
20260903020205 77 273 25.2 34.8 0.00 0.00 0.00 32 1009.5
20260903015205 77 268 25.2 33.9 0.00 0.00 0.00 33 1009.6
20260903014705 77 273 22.6 32.2 0.00 0.00 0.00 33 1009.6
20260903014206 77 278 21.7 27.8 0.00 0.00 0.00 33 1009.5
20260903013705 77 270 19.1 28.7 0.00 0.00 0.00 33 1009.7
20260903013205 77 275 22.6 32.2 0.00 0.00 0.00 33 1010.0
20260903012705 77 273 20.9 28.7 0.00 0.00 0.00 33 1010.0
20260903012205 77 273 19.1 28.7 0.00 0.00 0.00 32 1009.9
20260903011705 77 268 24.3 33.9 0.00 0.00 0.00 32 1009.9
20260903011205 77 272 25.2 33.0 0.00 0.00 0.00 33 1010.0
20260903010705 77 258 20.0 27.8 0.00 0.00 0.00 33 1009.9
20260903005705 76 276 16.5 22.6 0.00 0.00 0.00 35 1010.1
20260903005206 76 255 13.0 20.9 0.00 0.00 0.00 35 1010.1
20260903004705 76 248 20.9 30.4 0.00 0.00 0.00 35 1010.0
20260903004205 77 240 18.2 25.2 0.00 0.00 0.00 34 1010.1
20260903003705 77 238 12.2 20.9 0.00 0.00 0.00 35 1010.1
20260903003205 77 262 14.8 22.6 0.00 0.00 0.00 34 1010.1
20260903002705 77 274 14.8 22.6 0.00 0.00 0.00 33 1010.0
20260903001705 77 249 13.9 22.6 0.00 0.00 0.00 35 1009.8
20260903001205 76 267 11.3 20.0 0.00 0.00 0.00 36 1009.7
20260903000205 76 285 12.2 17.4 0.00 0.00 0.00 37 1009.8
20260902235705 76 275 13.0 19.1 0.00 0.00 0.00 37 1009.7
20260902234705 76 271 6.1 11.3 0.00 0.00 0.00 39 1009.9
20260902234205 76 279 9.6 14.8 0.00 0.00 0.00 38 1010.0
20260902233705 75 274 6.1 12.2 0.00 0.00 0.00 40 1009.6
20260902232705 74 313 6.1 12.2 0.00 0.00 0.00 41 1009.6
20260902232205 74 328 7.8 12.2 0.00 0.00 0.00 41 1009.6
20260902231205 73 298 9.6 14.8 0.00 0.00 0.00 41 1009.5
20260902230705 73 273 5.2 10.4 0.00 0.00 0.00 43 1009.7
20260902230205 72 319 8.7 10.4 0.00 0.00 0.00 43 1009.5
20260902225705 72 292 9.6 13.0 0.00 0.00 0.00 44 1009.8
20260902225205 72 297 6.1 8.7 0.00 0.00 0.00 44 1009.6
20260902224705 72 288 6.1 8.7 0.00 0.00 0.00 45 1009.4
20260902224205 71 300 6.1 10.4 0.00 0.00 0.00 45 1009.6
20260902223705 71 289 2.6 7.0 0.00 0.00 0.00 47 1009.5
20260902223205 71 312 4.3 6.1 0.00 0.00 0.00 47 1009.5
20260902222705 70 295 2.6 5.2 0.00 0.00 0.00 48 1009.4
20260902222204 70 307 5.2 7.8 0.00 0.00 0.00 48 1009.4
20260902221205 69 318 3.5 6.1 0.00 0.00 0.00 51 1009.3
20260902220704 69 301 5.2 7.0 0.00 0.00 0.00 50 1009.2
20260902220205 69 337 4.3 7.8 0.00 0.00 0.00 51 1009.3
20260902215705 69 314 4.3 7.8 0.00 0.00 0.00 50 1009.1
20260902215205 69 326 5.2 7.8 0.00 0.00 0.00 51 1009.1
20260902214705 69 324 5.2 7.0 0.00 0.00 0.00 51 1009.1
20260902214205 69 328 5.2 7.0 0.00 0.00 0.00 51 1009.3
20260902213705 69 317 4.3 5.2 0.00 0.00 0.00 51 1009.3
20260902212204 68 342 6.1 7.8 0.00 0.00 0.00 51 1009.2
20260902211204 68 324 5.2 7.0 0.00 0.00 0.00 52 1009.5
20260902210704 68 325 5.2 6.1 0.00 0.00 0.00 53 1009.6
20260902210205 67 334 5.2 7.0 0.00 0.00 0.00 53 1009.2
20260902205704 67 337 6.1 8.7 0.00 0.00 0.00 53 1009.2
20260902205204 67 345 6.1 8.7 0.00 0.00 0.00 54 1009.2
20260902204705 66 343 7.0 8.7 0.00 0.00 0.00 54 1009.1
20260902203704 66 343 7.0 7.8 0.00 0.00 0.00 56 1008.9
20260902202704 66 333 6.1 7.8 0.00 0.00 0.00 56 1009.1
20260902202204 66 334 6.1 7.8 0.00 0.00 0.00 56 1009.1
20260902201204 66 330 7.8 10.4 0.00 0.00 0.00 56 1009.3
20260902200704 67 343 7.8 10.4 0.00 0.00 0.00 56 1009.5
20260902195704 67 351 8.7 10.4 0.00 0.00 0.00 55 1009.2
20260902194704 67 354 6.1 8.7 0.00 0.00 0.00 55 1009.3
20260902193705 66 5 7.8 10.4 0.00 0.00 0.00 55 1009.3
20260902193205 66 0 5.2 7.8 0.00 0.00 0.00 57 1009.3
20260902192704 66 348 7.8 10.4 0.00 0.00 0.00 56 1009.5
20260902192204 66 345 6.1 8.7 0.00 0.00 0.00 56 1009.3
20260902191704 66 348 5.2 10.4 0.00 0.00 0.00 56 1009.3
20260902191204 67 347 9.6 13.0 0.00 0.00 0.00 54 1009.4
20260902190705 67 347 10.4 13.0 0.00 0.00 0.00 54 1009.7
20260902190204 67 332 9.6 11.3 0.00 0.00 0.00 54 1010.2
20260902185705 67 329 7.8 10.4 0.00 0.00 0.00 53 1010.2
20260902185205 67 328 9.6 10.4 0.00 0.00 0.00 51 1010.2
20260902184705 67 330 7.8 10.4 0.00 0.00 0.00 51 1010.3
20260902184204 68 333 7.0 8.7 0.00 0.00 0.00 50 1010.3
20260902183204 68 312 6.1 7.8 0.00 0.00 0.00 50 1010.2
20260902182704 67 309 7.0 10.4 0.00 0.00 0.00 51 1010.4
20260902182205 67 308 7.0 10.4 0.00 0.00 0.00 51 1010.5
20260902181704 67 283 7.8 11.3 0.00 0.00 0.00 53 1011.1
20260902181205 67 279 7.8 10.4 0.00 0.00 0.00 53 1011.2
20260902180705 67 268 8.7 10.4 0.00 0.00 0.00 53 1011.0
20260902180204 67 267 8.7 11.3 0.00 0.00 0.00 52 1010.8
20260902175704 67 277 6.1 7.8 0.00 0.00 0.00 50 1010.5
20260902175204 67 292 5.2 7.0 0.00 0.00 0.00 50 1010.3
20260902174704 67 294 6.1 7.0 0.00 0.00 0.00 50 1010.3
20260902174204 67 309 6.1 7.8 0.00 0.00 0.00 50 1010.2
20260902173704 67 313 7.0 7.8 0.00 0.00 0.00 50 1010.3
20260902173204 67 320 7.0 8.7 0.00 0.00 0.00 50 1010.4
20260902172704 67 320 7.8 10.4 0.00 0.00 0.00 50 1010.1
20260902172204 67 328 7.8 11.3 0.00 0.00 0.00 51 1010.2
20260902171204 67 320 10.4 13.0 0.00 0.00 0.00 51 1010.3
20260902170722 67 321 10.4 13.0 0.00 0.00 0.00 51 1010.4
20260902170213 67 315 8.7 12.2 0.00 0.00 0.00 51 1010.4
20260902165707 67 300 8.7 13.0 0.00 0.00 0.00 51 1010.6
20260902165207 67 301 7.8 11.3 0.00 0.00 0.00 50 1010.4
20260902164707 67 302 8.7 12.2 0.00 0.00 0.00 50 1010.8
20260902164207 67 301 7.8 11.3 0.00 0.00 0.00 50 1010.8
20260902163707 67 308 7.8 11.3 0.00 0.00 0.00 50 1010.9
20260902162706 67 299 7.8 10.4 0.00 0.00 0.00 50 1011.1
20260902162207 67 294 7.0 10.4 0.00 0.00 0.00 51 1011.3
20260902161206 67 294 7.8 11.3 0.00 0.00 0.00 51 1011.4
20260902160707 67 297 8.7 11.3 0.00 0.00 0.00 51 1011.1
20260902160207 66 295 8.7 10.4 0.00 0.00 0.00 51 1011.4
20260902155706 66 306 8.7 10.4 0.00 0.00 0.00 52 1011.4
20260902155206 66 306 8.7 11.3 0.00 0.00 0.00 52 1011.5
20260902154206 66 312 8.7 10.4 0.00 0.00 0.00 52 1011.8
20260902153707 66 307 8.7 10.4 0.00 0.00 0.00 52 1011.6
20260902153207 66 306 7.8 10.4 0.00 0.00 0.00 52 1011.8
20260902152706 66 307 7.8 10.4 0.00 0.00 0.00 52 1011.7
20260902152207 66 314 7.8 8.7 0.00 0.00 0.00 52 1011.8
20260902151707 66 319 7.8 8.7 0.00 0.00 0.00 51 1011.7
20260902151207 66 321 6.1 7.8 0.00 0.00 0.00 51 1012.1
20260902150707 67 320 6.1 7.0 0.00 0.00 0.00 50 1012.1
20260902150207 67 317 7.0 8.7 0.00 0.00 0.00 49 1012.2
20260902145707 67 318 7.8 10.4 0.00 0.00 0.00 49 1012.1
20260902145206 67 316 6.1 7.0 0.00 0.00 0.00 49 1012.2
20260902144706 67 325 6.1 6.1 0.00 0.00 0.00 49 1012.3
20260902144206 67 328 6.1 6.1 0.00 0.00 0.00 49 1012.3
20260902143707 67 328 6.1 7.0 0.00 0.00 0.00 49 1012.4
20260902143207 67 341 6.1 7.0 0.00 0.00 0.00 49 1012.4
20260902142706 67 341 6.1 7.0 0.00 0.00 0.00 49 1012.5
20260902142207 67 341 6.1 7.0 0.00 0.00 0.00 49 1012.5
20260902141706 67 341 5.2 7.0 0.00 0.00 0.00 49 1012.6
20260902140706 67 341 5.2 6.1 0.00 0.00 0.00 51 1012.8
20260902140207 67 341 6.1 7.0 0.00 0.00 0.00 50 1013.0
20260902135707 67 341 6.1 7.0 0.00 0.00 0.00 49 1013.1
20260902135206 67 341 5.2 6.1 0.00 0.00 0.00 49 1013.1
20260902134707 68 341 5.2 7.0 0.00 0.00 0.00 49 1012.9
20260902134206 68 339 6.1 7.0 0.00 0.00 0.00 47 1012.8
20260902133706 68 339 6.1 7.8 0.00 0.00 0.00 46 1012.8
20260902133207 69 338 7.0 7.8 0.00 0.00 0.00 46 1012.9
20260902132707 69 339 7.0 7.8 0.00 0.00 0.00 45 1013.0
20260902132206 69 334 7.0 8.7 0.00 0.00 0.00 44 1013.3
20260902131707 69 332 7.8 10.4 0.00 0.00 0.00 44 1013.2
20260902131206 69 334 7.8 8.7 0.00 0.00 0.00 44 1013.2
20260902130207 70 339 7.8 8.7 0.00 0.00 0.00 42 1013.3
20260902125707 70 334 8.7 10.4 0.00 0.00 0.00 42 1013.5
20260902125206 70 331 8.7 10.4 0.00 0.00 0.00 41 1013.5
20260902124706 70 330 9.6 10.4 0.00 0.00 0.00 41 1013.4
20260902124206 70 325 8.7 10.4 0.00 0.00 0.00 41 1013.5
20260902123707 70 322 7.8 8.7 0.00 0.00 0.00 40 1013.6
20260902123206 70 321 7.8 8.7 0.00 0.00 0.00 40 1013.6
20260902122706 70 319 7.8 8.7 0.00 0.00 0.00 40 1013.6
20260902122206 71 314 7.8 8.7 0.00 0.00 0.00 41 1013.6
20260902121707 71 311 7.8 8.7 0.00 0.00 0.00 40 1013.7
20260902121206 72 309 8.7 10.4 0.00 0.00 0.00 38 1013.8
20260902120707 71 302 8.7 10.4 0.00 0.00 0.00 39 1013.8
20260902120207 71 295 8.7 10.4 0.00 0.00 0.00 40 1013.8
20260902115707 71 298 7.8 8.7 0.00 0.00 0.00 40 1013.8
20260902115207 71 301 7.0 7.8 0.00 0.00 0.00 40 1013.8
20260902114706 72 303 7.0 8.7 0.00 0.00 0.00 38 1013.9
20260902114206 72 296 7.8 7.8 0.00 0.00 0.00 38 1013.8
20260902113706 72 298 7.0 7.8 0.00 0.00 0.00 38 1013.9
20260902112707 72 302 7.0 7.8 0.00 0.00 0.00 38 1013.9
20260902111707 71 304 7.0 7.8 0.00 0.00 0.00 39 1014.2
20260902111207 71 310 7.0 7.8 0.00 0.00 0.00 39 1014.1
20260902110706 71 318 5.2 7.0 0.00 0.00 0.00 40 1014.1